This is the latest recevied weather packets stored in our database for station/object JQ3CCU-10. If no packets are shown the sender has not sent any weather packets the latest 10 day(s).
| Time | Temp. | Humidity | Pressure | Rain* | Wind** | Luminosity | Snow |
|---|---|---|---|---|---|---|---|
| 1778144055 | 28.33° C | 57% | - | - | 0 m/s | - | - |
| 1778142255 | 28.33° C | 56% | - | - | 0 m/s | - | - |
| 1778140455 | 28.33° C | 56% | - | - | 0 m/s | - | - |
| 1778138655 | 28.33° C | 56% | - | - | 0 m/s | - | - |
| 1778136855 | 27.78° C | 55% | - | - | 0 m/s | - | - |
| 1778135055 | 27.78° C | 54% | - | - | 0 m/s | - | - |
| 1778133255 | 27.78° C | 55% | - | - | 0 m/s | - | - |
| 1778131455 | 27.78° C | 55% | - | - | 0 m/s | - | - |
| 1778129655 | 27.22° C | 58% | - | - | 0 m/s | - | - |
| 1778127855 | 27.22° C | 55% | - | - | 0 m/s | - | - |
| 1778126055 | 27.22° C | 54% | - | - | 0 m/s | - | - |
| 1778124255 | 27.22° C | 56% | - | - | 0 m/s | - | - |
| 1778122455 | 27.22° C | 53% | - | - | 0 m/s | - | - |
| 1778120655 | 28.33° C | 48% | - | - | 0 m/s | - | - |
| 1778118855 | 29.44° C | 45% | - | - | 0 m/s | - | - |
| 1778117055 | 30° C | 43% | - | - | 0 m/s | - | - |
| 1778115255 | 31.67° C | 40% | - | - | 0 m/s | - | - |
| 1778113455 | 31.67° C | 40% | - | - | 0 m/s | - | - |
| 1778111655 | 25° C | 50% | - | - | 0 m/s | - | - |
| 1778109855 | 23.89° C | 59% | - | - | 0 m/s | - | - |
| 1778108055 | 23.89° C | 59% | - | - | 0 m/s | - | - |
| 1778106255 | 21.11° C | 61% | - | - | 0 m/s | - | - |
| 1778104455 | 20.56° C | 64% | - | - | 0 m/s | - | - |
| 1778102655 | 20° C | 65% | - | - | 0 m/s | - | - |
| 1778100855 | 20° C | 73% | - | - | 0 m/s | - | - |
* Rain since midnight (hover to see other rain measurements)
** Current wind speed in m/s (hover to see current wind gust speed)